CW3467 Sant Marti de Canals ES current weather conditions

sailwx.info

Wind from 142

Air temperature 13.9° C
Dewpoint 13.9° C

Last reported at 2014-Oct-01 07:45 UTC.
Time now 2014-Oct-01 08:15 UTC

Location: N 42°14' E 000°59'.
View on Google Maps.

See reports from other nearby stations

  
Tides and Currents Weather Stations Pressure Air Temp Water Temp Dewpoint Dewpoint Depression Visibility Wind Speed Wind Dir Waves Ship Positions
date/time (UTC)wind fromknots sea level pressurealtimeterstation pressurevisibilityair tempwater tempwave heightnotes
2014-Oct-01 07:45 142 13.9
2014-Oct-01 07:30 217 13.3
2014-Oct-01 07:15 160 13.9
2014-Oct-01 07:00 075 13.3
2014-Oct-01 06:45 347 13.3
2014-Oct-01 06:30 212 13.3
2014-Oct-01 06:15 211 13.3
2014-Oct-01 06:00 212 13.3
2014-Oct-01 05:45 212 13.9
2014-Oct-01 05:30 208 13.3
2014-Oct-01 05:15 205 13.3
2014-Oct-01 05:00 208 13.3
2014-Oct-01 04:45 153 13.9
2014-Oct-01 04:30 167 0 gusting 2 13.9
2014-Oct-01 04:15 097 1 gusting 2 13.9
2014-Oct-01 04:00 135 13.9
2014-Oct-01 03:45 146 14.4
2014-Oct-01 03:30 097 14.4
2014-Oct-01 03:15 107 14.4
2014-Oct-01 03:00 143 14.4
2014-Oct-01 02:45 128 15.0
2014-Oct-01 02:30 128 15.0
2014-Oct-01 02:15 128 15.0
2014-Oct-01 02:00 122 15.0
2014-Oct-01 01:45 198 15.0
2014-Oct-01 01:30 226 15.0
2014-Oct-01 01:15 226 15.6
2014-Oct-01 01:00 226 15.6
2014-Oct-01 00:45 226 15.6
2014-Oct-01 00:30 226 15.0
2014-Oct-01 00:15 226 15.6
2014-Oct-01 00:00 212 15.6
2014-Sep-30 23:45 212 15.6
2014-Sep-30 23:30 212 15.6
2014-Sep-30 23:15 212 15.6
2014-Sep-30 23:00 212 15.6
2014-Sep-30 22:45 212 15.6
2014-Sep-30 22:30 212 15.6
2014-Sep-30 22:15 212 15.6
2014-Sep-30 22:00 212 15.0
2014-Sep-30 21:44 113 15.6
2014-Sep-30 21:29 163 15.6
2014-Sep-30 21:14 158 16.1
2014-Sep-30 20:59 113 16.1
2014-Sep-30 20:44 215 16.1
2014-Sep-30 20:29 205 16.7
2014-Sep-30 20:14 100 16.7
2014-Sep-30 19:59 102 16.7
2014-Sep-30 19:44 218 0 gusting 2 16.7
2014-Sep-30 19:29 129 17.2
2014-Sep-30 19:14 103 16.7
2014-Sep-30 18:59 215 16.7
2014-Sep-30 18:44 224 17.2
2014-Sep-30 18:29 039 17.2
2014-Sep-30 18:14 041 17.2
2014-Sep-30 17:59 110 17.2
2014-Sep-30 17:44 111 17.8
2014-Sep-30 17:29 111 18.3
2014-Sep-30 17:14 155 18.3
2014-Sep-30 16:59 155 18.9
2014-Sep-30 16:44 249 18.9
2014-Sep-30 16:29 250 19.4
2014-Sep-30 16:14 229 19.4
2014-Sep-30 15:59 235 19.4
2014-Sep-30 15:44 236 20.6
2014-Sep-30 15:29 212 0 gusting 2 20.0
2014-Sep-30 15:14 226 20.0
2014-Sep-30 14:59 215 20.0
2014-Sep-30 14:44 252 0 gusting 4 20.0
2014-Sep-30 14:29 225 0 gusting 3 20.6
2014-Sep-30 14:14 164 18.9
2014-Sep-30 13:59 134 18.3
2014-Sep-30 13:44 226 18.3
2014-Sep-30 13:29 242 17.8
2014-Sep-30 13:14 127 17.8
2014-Sep-30 12:59 145 0 gusting 1 17.8
2014-Sep-30 12:44 226 17.8
2014-Sep-30 12:29 224 18.3
2014-Sep-30 12:14 229 18.9
2014-Sep-30 11:59 221 0 gusting 1 18.9
2014-Sep-30 11:44 141 18.3
2014-Sep-30 11:29 224 1 gusting 3 18.3
2014-Sep-30 11:14 219 0 gusting 1 18.9
2014-Sep-30 10:59 278 18.3
2014-Sep-30 10:44 256 18.9
2014-Sep-30 10:29 257 18.9
2014-Sep-30 10:14 176 18.3
2014-Sep-30 09:59 215 17.8
2014-Sep-30 09:44 228 16.7
2014-Sep-30 09:29 228 16.1
2014-Sep-30 09:14 216 15.6
2014-Sep-30 08:59 218 16.1
2014-Sep-30 08:44 218 15.6
2014-Sep-30 08:29 224 15.6
2014-Sep-30 08:13 134 15.0
2014-Sep-30 07:58 166 2 gusting 4 14.4
2014-Sep-30 07:43 152 1 gusting 2 14.4
2014-Sep-30 07:28 141 14.4
2014-Sep-30 07:13 003 14.4
2014-Sep-30 06:58 004 14.4
2014-Sep-30 06:43 129 13.9
2014-Sep-30 06:28 129 13.9
2014-Sep-30 06:13 130 14.4
2014-Sep-30 05:58 129 14.4
2014-Sep-30 04:43 092 14.4
2014-Sep-30 04:28 047 14.4
2014-Sep-30 04:13 103 14.4
2014-Sep-30 03:58 103 14.4
2014-Sep-30 03:43 121 15.0
2014-Sep-30 03:28 136 15.0
2014-Sep-30 03:13 077 15.0
2014-Sep-30 02:58 356 15.0
2014-Sep-30 02:43 126 15.0
2014-Sep-30 02:28 044 15.6
2014-Sep-30 02:13 094 1 gusting 2 15.6
2014-Sep-30 01:58 094 1 gusting 1 15.6
2014-Sep-30 01:43 336 15.6
2014-Sep-30 01:28 094 0 gusting 1 15.6
2014-Sep-30 01:13 131 15.6
2014-Sep-30 00:58 354 15.6
2014-Sep-30 00:43 123 15.6
2014-Sep-30 00:28 125 15.6
2014-Sep-30 00:13 130 15.6
2014-Sep-29 23:58 089 16.1
2014-Sep-29 23:43 070 16.1
2014-Sep-29 23:28 046 16.1
2014-Sep-29 23:13 032 16.1
2014-Sep-29 22:58 197 16.1
2014-Sep-29 22:43 221 16.7
2014-Sep-29 22:28 096 16.7
2014-Sep-29 22:13 103 0 gusting 1 17.2
2014-Sep-29 21:58 145 0 gusting 2 17.2
2014-Sep-29 21:43 028 17.8
2014-Sep-29 21:28 029 17.8
2014-Sep-29 21:13 030 0 gusting 1 17.8
2014-Sep-29 20:58 116 0 gusting 3 17.8
2014-Sep-29 20:43 111 18.3
2014-Sep-29 20:28 109 18.9
2014-Sep-29 20:13 015 18.9
2014-Sep-29 19:58 342 18.9
2014-Sep-29 19:43 353 1 gusting 2 18.9
2014-Sep-29 19:28 081 0 gusting 1 18.9
2014-Sep-29 19:13 074 19.4
2014-Sep-29 18:58 133 19.4
2014-Sep-29 18:43 115 0 gusting 2 20.0
2014-Sep-29 18:28 102 1 gusting 2 20.0
2014-Sep-29 18:13 145 0 gusting 2 20.0
2014-Sep-29 17:58 089 0 gusting 1 20.0
2014-Sep-29 17:43 221 20.6
2014-Sep-29 17:28 221 20.6
2014-Sep-29 17:13 165 0 gusting 3 21.1
2014-Sep-29 16:58 106 0 gusting 2 21.1
2014-Sep-29 16:43 145 21.7
2014-Sep-29 16:28 214 22.2
2014-Sep-29 16:13 217 23.3
2014-Sep-29 15:58 145 22.8
2014-Sep-29 15:43 127 0 gusting 2 22.2
2014-Sep-29 15:28 149 0 gusting 2 22.8
2014-Sep-29 15:13 214 23.3
2014-Sep-29 14:58 132 23.3
2014-Sep-29 14:43 284 23.3
2014-Sep-29 14:28 277 22.8
2014-Sep-29 14:12 210 23.3
2014-Sep-29 13:57 297 23.9
2014-Sep-29 13:42 248 22.8
2014-Sep-29 13:28 262 0 gusting 2 22.8
2014-Sep-29 13:12 342 0 gusting 6 22.2
2014-Sep-29 12:57 212 0 gusting 2 22.2
2014-Sep-29 12:42 262 21.7
2014-Sep-29 12:27 277 21.1
2014-Sep-29 12:12 217 20.6
2014-Sep-29 11:57 312 20.6
2014-Sep-29 11:42 274 20.0
2014-Sep-29 11:27 212 0 gusting 3 19.4
2014-Sep-29 11:12 229 0 gusting 3 19.4
2014-Sep-29 10:57 260 19.4
2014-Sep-29 10:42 138 0 gusting 2 18.3
2014-Sep-29 10:27 149 1 gusting 4 17.8
2014-Sep-29 10:12 212 17.2
2014-Sep-29 09:57 219 17.2
2014-Sep-29 09:42 226 16.7
2014-Sep-29 09:27 229 16.1
2014-Sep-29 09:12 138 16.1
2014-Sep-29 08:57 211 16.1
2014-Sep-29 08:42 240 15.6
2014-Sep-29 08:27 119 0 gusting 3 15.0
2014-Sep-29 08:12 148 15.0